Time,TemperatureF,DewpointF,PressureIn,WindDirection,WindDirectionDegrees,WindSpeedMPH,WindSpeedGustMPH,Humidity,HourlyPrecipIn,Conditions,Clouds,dailyrainin,SoftwareType,DateUTC
2015-09-04 00:01:00,46.6,40.5,30.24,North,-9999,-999.9,0.0,79,0.00,,,0.00,WUHU21623XXSP,2015-09-03 14:01:00,
2015-09-04 00:05:00,46.0,39.9,30.25,North,-9999,-999.9,0.0,79,0.00,,,0.00,WUHU21623XXSP,2015-09-03 14:05:00,
2015-09-04 00:11:00,45.8,39.7,30.25,North,-9999,-999.9,0.0,79,0.00,,,0.00,WUHU21623XXSP,2015-09-03 14:11:00,
2015-09-04 00:16:00,45.3,39.2,30.25,North,-9999,-999.9,0.0,79,0.00,,,0.00,WUHU21623XXSP,2015-09-03 14:16:00,
2015-09-04 00:21:00,45.0,39.0,30.26,North,-9999,-999.9,0.0,79,0.00,,,0.00,WUHU21623XXSP,2015-09-03 14:21:00,
2015-09-04 00:26:00,44.7,39.0,30.26,North,-9999,-999.9,0.0,80,0.00,,,0.00,WUHU21623XXSP,2015-09-03 14:26:00,
2015-09-04 00:30:00,44.5,38.8,30.26,North,-9999,-999.9,0.0,80,0.00,,,0.00,WUHU21623XXSP,2015-09-03 14:30:00,
2015-09-04 00:36:00,44.1,38.3,30.26,North,-9999,-999.9,0.0,80,0.00,,,0.00,WUHU21623XXSP,2015-09-03 14:36:00,
2015-09-04 00:41:00,44.1,38.3,30.26,North,-9999,-999.9,0.0,80,0.00,,,0.00,WUHU21623XXSP,2015-09-03 14:41:00,
2015-09-04 00:46:00,43.8,38.3,30.26,North,-9999,-999.9,0.0,81,0.00,,,0.00,WUHU21623XXSP,2015-09-03 14:46:00,
2015-09-04 00:51:00,43.6,38.1,30.27,North,-9999,-999.9,0.0,81,0.00,,,0.00,WUHU21623XXSP,2015-09-03 14:51:00,
2015-09-04 00:56:00,43.5,38.1,30.26,North,-9999,-999.9,0.0,81,0.00,,,0.00,WUHU21623XXSP,2015-09-03 14:56:00,
2015-09-04 01:01:00,43.5,38.4,30.27,North,-9999,-999.9,0.0,82,0.00,,,0.00,WUHU21623XXSP,2015-09-03 15:01:00,
2015-09-04 01:06:00,43.7,38.6,30.27,North,-9999,-999.9,0.0,82,0.00,,,0.00,WUHU21623XXSP,2015-09-03 15:06:00,
2015-09-04 01:10:00,44.0,38.9,30.27,North,-9999,-999.9,0.0,82,0.00,,,0.00,WUHU21623XXSP,2015-09-03 15:10:00,
2015-09-04 01:15:00,44.0,38.9,30.27,North,-9999,-999.9,0.0,82,0.00,,,0.00,WUHU21623XXSP,2015-09-03 15:15:00,
2015-09-04 01:21:00,44.4,39.2,30.26,North,-9999,-999.9,0.0,82,0.00,,,0.00,WUHU21623XXSP,2015-09-03 15:21:00,
2015-09-04 01:26:00,44.7,39.5,30.26,North,-9999,-999.9,0.0,82,0.00,,,0.00,WUHU21623XXSP,2015-09-03 15:26:00,
2015-09-04 01:31:00,44.7,39.5,30.27,North,-9999,-999.9,0.0,82,0.00,,,0.00,WUHU21623XXSP,2015-09-03 15:31:00,
2015-09-04 01:36:00,44.9,39.7,30.27,North,-9999,-999.9,0.0,82,0.00,,,0.00,WUHU21623XXSP,2015-09-03 15:36:00,
2015-09-04 01:41:00,45.2,40.4,30.27,North,-9999,-999.9,0.0,83,0.00,,,0.00,WUHU21623XXSP,2015-09-03 15:41:00,
2015-09-04 01:46:00,45.5,40.7,30.27,North,-9999,-999.9,0.0,83,0.00,,,0.00,WUHU21623XXSP,2015-09-03 15:46:00,
2015-09-04 01:50:00,45.5,40.7,30.27,North,-9999,-999.9,0.0,83,0.00,,,0.00,WUHU21623XXSP,2015-09-03 15:50:00,
2015-09-04 01:55:00,45.7,40.9,30.27,North,-9999,-999.9,0.0,83,0.00,,,0.00,WUHU21623XXSP,2015-09-03 15:55:00,
2015-09-04 02:00:00,45.7,40.9,30.27,North,-9999,-999.9,0.0,83,0.00,,,0.00,WUHU21623XXSP,2015-09-03 16:00:00,
2015-09-04 02:05:00,45.7,40.5,30.27,North,-9999,-999.9,0.0,82,0.00,,,0.00,WUHU21623XXSP,2015-09-03 16:05:00,
2015-09-04 02:10:00,45.9,40.7,30.27,North,-9999,-999.9,0.0,82,0.00,,,0.00,WUHU21623XXSP,2015-09-03 16:10:00,
2015-09-04 02:15:00,46.1,40.9,30.27,North,-9999,-999.9,0.0,82,0.00,,,0.00,WUHU21623XXSP,2015-09-03 16:15:00,
2015-09-04 02:20:00,46.1,40.9,30.27,North,-9999,-999.9,0.0,82,0.00,,,0.00,WUHU21623XXSP,2015-09-03 16:20:00,
2015-09-04 02:25:00,46.1,40.9,30.27,North,-9999,-999.9,0.0,82,0.00,,,0.00,WUHU21623XXSP,2015-09-03 16:25:00,
2015-09-04 02:30:00,46.3,41.1,30.27,North,-9999,-999.9,0.0,82,0.00,,,0.00,WUHU21623XXSP,2015-09-03 16:30:00,
2015-09-04 02:36:00,46.3,41.1,30.26,North,-9999,-999.9,0.0,82,0.00,,,0.00,WUHU21623XXSP,2015-09-03 16:36:00,
2015-09-04 02:41:00,46.3,41.1,30.26,North,-9999,-999.9,0.0,82,0.00,,,0.00,WUHU21623XXSP,2015-09-03 16:41:00,
2015-09-04 02:46:00,46.3,41.1,30.27,North,-9999,-999.9,0.0,82,0.00,,,0.00,WUHU21623XXSP,2015-09-03 16:46:00,
2015-09-04 02:51:00,46.4,41.2,30.27,North,-9999,-999.9,0.0,82,0.00,,,0.00,WUHU21623XXSP,2015-09-03 16:51:00,
2015-09-04 02:56:00,46.4,41.2,30.27,North,-9999,-999.9,0.0,82,0.00,,,0.00,WUHU21623XXSP,2015-09-03 16:56:00,
2015-09-04 03:01:00,46.4,41.2,30.27,North,-9999,-999.9,0.0,82,0.00,,,0.00,WUHU21623XXSP,2015-09-03 17:01:00,
2015-09-04 03:06:00,46.4,41.2,30.27,North,-9999,-999.9,0.0,82,0.00,,,0.00,WUHU21623XXSP,2015-09-03 17:06:00,
2015-09-04 03:11:00,46.3,41.1,30.27,North,-9999,-999.9,0.0,82,0.00,,,0.00,WUHU21623XXSP,2015-09-03 17:11:00,
2015-09-04 03:16:00,46.4,41.2,30.27,North,-9999,-999.9,0.0,82,0.00,,,0.00,WUHU21623XXSP,2015-09-03 17:16:00,
2015-09-04 03:21:00,46.4,41.2,30.27,North,-9999,-999.9,0.0,82,0.00,,,0.00,WUHU21623XXSP,2015-09-03 17:21:00,
2015-09-04 03:26:00,46.3,41.1,30.27,North,-9999,-999.9,0.0,82,0.00,,,0.00,WUHU21623XXSP,2015-09-03 17:26:00,
2015-09-04 03:31:00,46.3,41.1,30.27,North,-9999,-999.9,0.0,82,0.00,,,0.00,WUHU21623XXSP,2015-09-03 17:31:00,
2015-09-04 03:36:00,46.4,41.2,30.27,North,-9999,-999.9,0.0,82,0.00,,,0.00,WUHU21623XXSP,2015-09-03 17:36:00,
2015-09-04 03:41:00,46.4,41.2,30.27,North,-9999,-999.9,0.0,82,0.00,,,0.00,WUHU21623XXSP,2015-09-03 17:41:00,
2015-09-04 04:02:00,46.3,41.1,30.28,North,-9999,-999.9,0.0,82,0.00,,,0.00,WUHU21623XXSP,2015-09-03 18:02:00,
2015-09-04 04:10:00,46.3,41.4,30.27,North,-9999,-999.9,0.0,83,0.00,,,0.00,WUHU21623XXSP,2015-09-03 18:10:00,
2015-09-04 04:16:00,46.1,41.2,30.27,North,-9999,-999.9,0.0,83,0.00,,,0.00,WUHU21623XXSP,2015-09-03 18:16:00,
2015-09-04 04:21:00,46.1,41.2,30.27,North,-9999,-999.9,0.0,83,0.00,,,0.00,WUHU21623XXSP,2015-09-03 18:21:00,
2015-09-04 04:26:00,45.7,40.8,30.28,North,-9999,-999.9,0.0,83,0.00,,,0.00,WUHU21623XXSP,2015-09-03 18:26:00,
2015-09-04 04:31:00,45.5,40.7,30.28,North,-9999,-999.9,0.0,83,0.00,,,0.00,WUHU21623XXSP,2015-09-03 18:31:00,
2015-09-04 04:36:00,45.2,40.4,30.28,North,-9999,-999.9,0.0,83,0.00,,,0.00,WUHU21623XXSP,2015-09-03 18:36:00,
2015-09-04 04:41:00,45.0,40.2,30.28,North,-9999,-999.9,0.0,83,0.00,,,0.00,WUHU21623XXSP,2015-09-03 18:41:00,
2015-09-04 04:46:00,44.8,40.0,30.28,North,-9999,-999.9,0.0,83,0.00,,,0.00,WUHU21623XXSP,2015-09-03 18:46:00,
2015-09-04 04:51:00,44.7,39.8,30.28,North,-9999,-999.9,0.0,83,0.00,,,0.00,WUHU21623XXSP,2015-09-03 18:51:00,
2015-09-04 04:56:00,44.6,39.7,30.29,North,-9999,-999.9,0.0,83,0.00,,,0.00,WUHU21623XXSP,2015-09-03 18:56:00,
2015-09-04 05:01:00,44.4,39.8,30.28,North,-9999,-999.9,0.0,84,0.00,,,0.00,WUHU21623XXSP,2015-09-03 19:01:00,
2015-09-04 05:06:00,44.0,39.4,30.29,North,-9999,-999.9,0.0,84,0.00,,,0.00,WUHU21623XXSP,2015-09-03 19:06:00,
2015-09-04 05:11:00,43.7,39.2,30.29,North,-9999,-999.9,0.0,84,0.00,,,0.00,WUHU21623XXSP,2015-09-03 19:11:00,
2015-09-04 05:15:00,43.5,39.0,30.29,North,-9999,-999.9,0.0,84,0.00,,,0.00,WUHU21623XXSP,2015-09-03 19:15:00,
2015-09-04 05:21:00,43.1,38.6,30.29,North,-9999,-999.9,0.0,84,0.00,,,0.00,WUHU21623XXSP,2015-09-03 19:21:00,
2015-09-04 05:25:00,43.1,38.6,30.30,North,-9999,-999.9,0.0,84,0.00,,,0.00,WUHU21623XXSP,2015-09-03 19:25:00,
2015-09-04 05:30:00,42.9,38.4,30.29,North,-9999,-999.9,0.0,84,0.00,,,0.00,WUHU21623XXSP,2015-09-03 19:30:00,
2015-09-04 05:35:00,42.6,38.4,30.30,North,-9999,-999.9,0.0,85,0.00,,,0.00,WUHU21623XXSP,2015-09-03 19:35:00,
2015-09-04 05:40:00,42.7,38.5,30.30,North,-9999,-999.9,0.0,85,0.00,,,0.00,WUHU21623XXSP,2015-09-03 19:40:00,
2015-09-04 05:45:00,42.3,38.1,30.30,North,-9999,-999.9,0.0,85,0.00,,,0.00,WUHU21623XXSP,2015-09-03 19:45:00,
2015-09-04 05:50:00,42.3,38.1,30.30,North,-9999,-999.9,0.0,85,0.00,,,0.00,WUHU21623XXSP,2015-09-03 19:50:00,
2015-09-04 05:55:00,42.1,37.9,30.30,North,-9999,-999.9,0.0,85,0.00,,,0.00,WUHU21623XXSP,2015-09-03 19:55:00,
2015-09-04 06:00:00,41.8,37.9,30.30,North,-9999,-999.9,0.0,86,0.00,,,0.00,WUHU21623XXSP,2015-09-03 20:00:00,
2015-09-04 06:05:00,41.8,37.9,30.30,North,-9999,-999.9,0.0,86,0.00,,,0.00,WUHU21623XXSP,2015-09-03 20:05:00,
2015-09-04 06:29:00,41.0,37.1,30.30,North,-9999,-999.9,0.0,86,0.00,,,0.00,WUHU21623XXSP,2015-09-03 20:29:00,
2015-09-04 06:34:00,41.0,37.1,30.30,North,-9999,-999.9,0.0,86,0.00,,,0.00,WUHU21623XXSP,2015-09-03 20:34:00,
2015-09-04 06:39:00,40.8,36.9,30.31,North,-9999,-999.9,0.0,86,0.00,,,0.00,WUHU21623XXSP,2015-09-03 20:39:00,
2015-09-04 06:44:00,40.6,37.0,30.30,North,-9999,-999.9,0.0,87,0.00,,,0.00,WUHU21623XXSP,2015-09-03 20:44:00,
2015-09-04 06:49:00,40.7,37.1,30.30,North,-9999,-999.9,0.0,87,0.00,,,0.00,WUHU21623XXSP,2015-09-03 20:49:00,
2015-09-04 06:54:00,40.7,37.1,30.30,North,-9999,-999.9,0.0,87,0.00,,,0.00,WUHU21623XXSP,2015-09-03 20:54:00,
2015-09-04 06:59:00,40.7,37.1,30.30,North,-9999,-999.9,0.0,87,0.00,,,0.00,WUHU21623XXSP,2015-09-03 20:59:00,
2015-09-04 07:04:00,40.9,37.3,30.30,North,-9999,-999.9,0.0,87,0.00,,,0.00,WUHU21623XXSP,2015-09-03 21:04:00,
2015-09-04 07:09:00,41.1,37.5,30.30,North,-9999,-999.9,0.0,87,0.00,,,0.00,WUHU21623XXSP,2015-09-03 21:09:00,
2015-09-04 07:14:00,41.3,37.7,30.30,North,-9999,-999.9,0.0,87,0.00,,,0.00,WUHU21623XXSP,2015-09-03 21:14:00,
2015-09-04 07:19:00,41.5,38.1,30.29,North,-9999,-999.9,0.0,88,0.00,,,0.00,WUHU21623XXSP,2015-09-03 21:19:00,
2015-09-04 07:24:00,41.9,38.5,30.30,North,-9999,-999.9,0.0,88,0.00,,,0.00,WUHU21623XXSP,2015-09-03 21:24:00,
2015-09-04 07:29:00,42.1,38.8,30.31,North,-9999,-999.9,0.0,88,0.00,,,0.00,WUHU21623XXSP,2015-09-03 21:29:00,
2015-09-04 07:34:00,42.6,39.3,30.30,North,-9999,-999.9,0.0,88,0.00,,,0.00,WUHU21623XXSP,2015-09-03 21:34:00,
2015-09-04 07:39:00,43.5,40.2,30.30,North,-9999,-999.9,0.0,88,0.00,,,0.00,WUHU21623XXSP,2015-09-03 21:39:00,
2015-09-04 07:44:00,44.2,40.9,30.30,North,-9999,-999.9,0.0,88,0.00,,,0.00,WUHU21623XXSP,2015-09-03 21:44:00,
2015-09-04 07:49:00,45.1,41.8,30.30,North,-9999,-999.9,0.0,88,0.00,,,0.00,WUHU21623XXSP,2015-09-03 21:49:00,
2015-09-04 07:54:00,46.0,42.4,30.30,North,-9999,-999.9,0.0,87,0.00,,,0.00,WUHU21623XXSP,2015-09-03 21:54:00,
2015-09-04 07:59:00,46.9,43.3,30.31,North,-9999,-999.9,0.0,87,0.00,,,0.00,WUHU21623XXSP,2015-09-03 21:59:00,
2015-09-04 08:04:00,47.8,44.2,30.31,North,-9999,-999.9,0.0,87,0.00,,,0.00,WUHU21623XXSP,2015-09-03 22:04:00,
2015-09-04 08:09:00,48.6,44.5,30.30,North,-9999,-999.9,0.0,86,0.00,,,0.00,WUHU21623XXSP,2015-09-03 22:09:00,
2015-09-04 08:10:00,48.6,44.5,30.30,North,-9999,-999.9,0.0,86,0.00,,,0.00,WUHU21623XXSP,2015-09-03 22:10:00,
2015-09-04 08:15:00,48.9,44.6,30.30,North,-9999,-999.9,0.0,85,0.00,,,0.00,WUHU21623XXSP,2015-09-03 22:15:00,
2015-09-04 08:20:00,49.6,44.9,30.30,North,-9999,-999.9,0.0,84,0.00,,,0.00,WUHU21623XXSP,2015-09-03 22:20:00,
2015-09-04 08:25:00,49.8,45.1,30.30,North,-9999,-999.9,0.0,84,0.00,,,0.00,WUHU21623XXSP,2015-09-03 22:25:00,
2015-09-04 08:30:00,50.2,45.2,30.30,North,-9999,-999.9,0.0,83,0.00,,,0.00,WUHU21623XXSP,2015-09-03 22:30:00,
2015-09-04 08:35:00,50.4,45.0,30.31,North,-9999,-999.9,0.0,82,0.00,,,0.00,WUHU21623XXSP,2015-09-03 22:35:00,
2015-09-04 08:40:00,50.7,45.4,30.31,North,-9999,-999.9,0.0,82,0.00,,,0.00,WUHU21623XXSP,2015-09-03 22:40:00,
2015-09-04 08:45:00,50.9,45.3,30.31,North,-9999,-999.9,0.0,81,0.00,,,0.00,WUHU21623XXSP,2015-09-03 22:45:00,
2015-09-04 08:50:00,51.3,45.6,30.31,North,-9999,-999.9,0.0,81,0.00,,,0.00,WUHU21623XXSP,2015-09-03 22:50:00,
2015-09-04 08:55:00,51.4,45.2,30.31,North,-9999,-999.9,0.0,79,0.00,,,0.00,WUHU21623XXSP,2015-09-03 22:55:00,
2015-09-04 09:00:00,51.8,45.5,30.32,North,-9999,-999.9,0.0,79,0.00,,,0.00,WUHU21623XXSP,2015-09-03 23:00:00,
2015-09-04 09:06:00,52.5,45.2,30.31,North,-9999,-999.9,0.0,76,0.00,,,0.00,WUHU21623XXSP,2015-09-03 23:06:00,
2015-09-04 09:11:00,52.9,45.5,30.31,North,-9999,-999.9,0.0,76,0.00,,,0.00,WUHU21623XXSP,2015-09-03 23:11:00,
2015-09-04 09:16:00,53.2,45.2,30.31,North,-9999,-999.9,0.0,74,0.00,,,0.00,WUHU21623XXSP,2015-09-03 23:16:00,
2015-09-04 09:21:00,53.8,44.9,30.31,North,-9999,-999.9,0.0,72,0.00,,,0.00,WUHU21623XXSP,2015-09-03 23:21:00,
2015-09-04 09:26:00,54.3,45.1,30.32,North,-9999,-999.9,0.0,71,0.00,,,0.00,WUHU21623XXSP,2015-09-03 23:26:00,
2015-09-04 09:31:00,54.7,45.1,30.32,North,-9999,-999.9,0.0,70,0.00,,,0.00,WUHU21623XXSP,2015-09-03 23:31:00,
2015-09-04 09:36:00,54.7,44.7,30.32,North,-9999,-999.9,0.0,69,0.00,,,0.00,WUHU21623XXSP,2015-09-03 23:36:00,
2015-09-04 09:41:00,55.2,44.9,30.31,North,-9999,-999.9,0.0,68,0.00,,,0.00,WUHU21623XXSP,2015-09-03 23:41:00,
2015-09-04 09:46:00,55.0,44.3,30.31,North,-9999,-999.9,0.0,67,0.00,,,0.00,WUHU21623XXSP,2015-09-03 23:46:00,
2015-09-04 09:56:00,55.2,44.4,30.32,North,-9999,-999.9,0.0,67,0.00,,,0.00,WUHU21623XXSP,2015-09-03 23:56:00,
2015-09-04 10:01:00,55.2,44.0,30.32,North,-9999,-999.9,0.0,66,0.00,,,0.00,WUHU21623XXSP,2015-09-04 00:01:00,
2015-09-04 10:11:00,55.4,44.2,30.32,North,-9999,-999.9,0.0,66,0.00,,,0.00,WUHU21623XXSP,2015-09-04 00:11:00,
2015-09-04 10:16:00,55.2,43.6,30.32,North,-9999,-999.9,0.0,65,0.00,,,0.00,WUHU21623XXSP,2015-09-04 00:16:00,
2015-09-04 10:21:00,55.0,43.4,30.32,North,-9999,-999.9,0.0,65,0.00,,,0.00,WUHU21623XXSP,2015-09-04 00:21:00,
2015-09-04 10:26:00,55.2,43.6,30.32,North,-9999,-999.9,0.0,65,0.00,,,0.00,WUHU21623XXSP,2015-09-04 00:26:00,
2015-09-04 10:31:00,55.4,43.8,30.32,North,-9999,-999.9,0.0,65,0.00,,,0.00,WUHU21623XXSP,2015-09-04 00:31:00,
2015-09-04 10:36:00,55.2,43.2,30.32,North,-9999,-999.9,0.0,64,0.00,,,0.00,WUHU21623XXSP,2015-09-04 00:36:00,
2015-09-04 10:41:00,55.2,43.2,30.33,North,-9999,-999.9,0.0,64,0.00,,,0.00,WUHU21623XXSP,2015-09-04 00:41:00,
2015-09-04 10:46:00,56.1,44.1,30.32,North,-9999,-999.9,0.0,64,0.00,,,0.00,WUHU21623XXSP,2015-09-04 00:46:00,
2015-09-04 10:51:00,56.5,44.4,30.33,North,-9999,-999.9,0.0,64,0.00,,,0.00,WUHU21623XXSP,2015-09-04 00:51:00,
2015-09-04 10:56:00,56.8,44.3,30.32,North,-9999,-999.9,0.0,63,0.00,,,0.00,WUHU21623XXSP,2015-09-04 00:56:00,
2015-09-04 11:01:00,56.3,43.4,30.32,North,-9999,-999.9,0.0,62,0.00,,,0.00,WUHU21623XXSP,2015-09-04 01:01:00,
2015-09-04 11:06:00,56.1,43.6,30.32,North,-9999,-999.9,0.0,63,0.00,,,0.00,WUHU21623XXSP,2015-09-04 01:06:00,
2015-09-04 11:11:00,56.3,43.4,30.33,North,-9999,-999.9,0.0,62,0.00,,,0.00,WUHU21623XXSP,2015-09-04 01:11:00,
2015-09-04 11:16:00,56.1,42.8,30.32,North,-9999,-999.9,0.0,61,0.00,,,0.00,WUHU21623XXSP,2015-09-04 01:16:00,
2015-09-04 11:21:00,55.9,43.1,30.32,North,-9999,-999.9,0.0,62,0.00,,,0.00,WUHU21623XXSP,2015-09-04 01:21:00,
2015-09-04 11:26:00,56.3,43.4,30.32,North,-9999,-999.9,0.0,62,0.00,,,0.00,WUHU21623XXSP,2015-09-04 01:26:00,
2015-09-04 11:31:00,56.3,43.4,30.32,North,-9999,-999.9,0.0,62,0.00,,,0.00,WUHU21623XXSP,2015-09-04 01:31:00,
2015-09-04 11:36:00,56.1,43.3,30.32,North,-9999,-999.9,0.0,62,0.00,,,0.00,WUHU21623XXSP,2015-09-04 01:36:00,
2015-09-04 11:41:00,56.1,43.3,30.32,North,-9999,-999.9,0.0,62,0.00,,,0.00,WUHU21623XXSP,2015-09-04 01:41:00,
2015-09-04 11:46:00,56.5,43.6,30.32,North,-9999,-999.9,0.0,62,0.00,,,0.00,WUHU21623XXSP,2015-09-04 01:46:00,
2015-09-04 11:51:00,56.8,43.6,30.32,North,-9999,-999.9,0.0,61,0.00,,,0.00,WUHU21623XXSP,2015-09-04 01:51:00,
2015-09-04 11:56:00,56.8,43.6,30.31,North,-9999,-999.9,0.0,61,0.00,,,0.00,WUHU21623XXSP,2015-09-04 01:56:00,
2015-09-04 12:01:00,57.0,43.7,30.32,North,-9999,-999.9,0.0,61,0.00,,,0.00,WUHU21623XXSP,2015-09-04 02:01:00,
2015-09-04 12:06:00,57.0,43.7,30.31,North,-9999,-999.9,0.0,61,0.00,,,0.00,WUHU21623XXSP,2015-09-04 02:06:00,